Regional Weather Roundup
Issued by NWS Burlington, VT

Home | Current Version | Previous Version | Text Only | Print | Product List | Glossary On
Versions: 1 2 3 4 5 6 7 8 9 10 11 12 13 14 15 16 17 18 19 20 21 22 23 24 25 26 27 28 29 30 31 32 33 34 35 36 37 38 39 40 41 42 43 44 45 46 47 48 49 50
000
ASUS41 KBTV 280330
RWRBTV
VERMONT REGIONAL WEATHER ROUNDUP
NATIONAL WEATHER SERVICE BURLINGTON VT
1100 PM EDT TUE JUN 27 2017

NOTE: "FAIR" INDICATES FEW OR NO CLOUDS BELOW 12,000 FEET WITH NO
SIGNIFICANT WEATHER AND/OR OBSTRUCTIONS TO VISIBILITY.

* THESE REPORTS ARE NOT UNDER NWS QUALITY CONTROL AND/OR DO NOT
  REPORT WEATHER SUCH AS PRECIPITATION AND FOG.

VTZ001>019-280400-
_____VERMONT_____


CITY           SKY/WX    TMP DP  RH WIND       PRES   REMARKS
BURLINGTON     CLOUDY    56  53  90 S6        29.94R
MONTPELIER     CLOUDY    52  51  97 E3        29.98S
MORRISVILLE    CLOUDY    53  52  96 CALM      29.96R
ST. JOHNSBURY*   N/A     53  53 100 MISG      29.93R
LYNDONVILLE*   DRIZZLE   51  50  95 S3        29.96S
MIDDLEBURY*    CLOUDY    54  51  92 CALM      29.96R
RUTLAND*       MOCLDY    52  50  93 SE6       29.98R
SPRINGFIELD    FOG       51  50  96 CALM      29.98R VSB 1/4
HIGHGATE*      CLOUDY    56  54  95 CALM      29.93R
NEWPORT*       RAIN      53  52  97 S5        29.95R
BENNINGTON     CLEAR     50  47  89 CALM      29.99R
SUTTON*          N/A     50 N/A N/A MISG        N/A
ISLAND POND*     N/A     54 N/A N/A NW1         N/A
GALLUP MILLS*    N/A     52 N/A N/A MISG        N/A
UNION VILLAGE*   N/A     52 N/A N/A MISG        N/A
MT. MANSFIELD*   N/A     45 N/A N/A W31         N/A

_____LAKE CHAMPLAIN_____


CITY           SKY/WX    TMP DP  RH WIND       PRES   REMARKS
BURTON ISLAND*   N/A     59  55  88 S10         N/A
COLCHESTER RF*   N/A     59  55  88 S18         N/A
DIAMOND ISL*     N/A     55  54  94 SE7         N/A

$$

NYZ007-026>031-035-052-083-087-280400-
_____NORTHERN NEW YORK_____


CITY           SKY/WX    TMP DP  RH WIND       PRES   REMARKS
PLATTSBURGH    CLOUDY    55  53  93 S6        29.93R
SARANAC LAKE   CLOUDY    51  49  92 SW6       29.94R
MASSENA        LGT RAIN  57  55  93 SW7       29.92R
OGDENSBURG*    CLOUDY    58  54  86 SW7       29.94R
POTSDAM*       CLOUDY    55  55 100 SW7       29.94R
STARK FALLS*     N/A     54 N/A N/A S7          N/A
WATERTOWN      PTCLDY    60  57  89 W9        29.97R
FT DRUM        PTCLDY    56  54  90 SW8       29.96R
ALBANY         PTCLDY    53  49  86 W6        29.98R
GLENS FALLS    FOG       49  48  97 CALM      29.98R VSB 3/4

$$
NHZ002-005-011-280400-
_____NEW HAMPSHIRE_____


CITY           SKY/WX    TMP DP  RH WIND       PRES   REMARKS
LEBANON        PTCLDY    51  49  92 CALM      29.95R
KEENE          CLEAR     51  50  96 S3        29.98S
MT WASHINGTON  FOG       37  37 100 W23         N/A  VSB 0   WCI  26
PLYMOUTH       FAIR      53  51  93 W3        29.95R
WHITEFIELD     FOG       49  47  93 CALM      29.94S VSB 1

$$

_____REGIONAL QUEBEC LOCATIONS_____


CITY           SKY/WX    TMP DP  RH WIND       PRES   REMARKS
MONTREAL       CLOUDY    61  55  82 SW7       29.90R
QUEBEC CITY    PTCLDY    52  50  93 NW3       29.88S
SHERBROOKE     CLOUDY    55  54  94 CALM      29.91S

_____REGIONAL ONTARIO LOCATIONS_____


CITY           SKY/WX    TMP DP  RH WIND       PRES   REMARKS
OTTAWA         MOCLDY    54  52  94 SW6       29.92R

______KEY______
VSB  - VISIBILITY IN MILES
WCI  - WIND CHILL INDEX
HX   - HEAT INDEX
$$
NNNN




USA.gov is the U.S. government's official web portal to all federal, state and local government web resources and services.